When you browse on this site, cookies collect data to enhance your experience and personalize the content and advertising you see.
Visit our Privacy Policy to learn more. By continuing to use the site, you agree to this use of cookies and data.
  • Em Portugal
  • Lista de países
  • Para 7 dias
  • Temperatura da água
  • Mapas de satélite
  • Mapa do tempo
  • Widgets de tempo
  • user-avatar
    Iniciar Sessão

    Previsão horária em Klagenfurt

    Hoje, 22 Julho, Segunda-feira

    Tempo Temperatura Precipitação Vento Pressão Humidade
    00:00 +15°C° 0.1 mm 0 m/s 696 mmHg 93%
    01:00 +15°C° 0 mm 0 m/s 696 mmHg 93%
    02:00 +15°C° 0.1 mm 0 m/s 696 mmHg 94%
    03:00 +14°C° 0.1 mm 0 m/s 695 mmHg 94%
    04:00 +14°C° 0.1 mm 0 m/s 695 mmHg 95%
    05:00 +15°C° 0.1 mm 0 m/s 696 mmHg 94%
    06:00 +16°C° 0.1 mm 0 m/s 696 mmHg 93%
    07:00 +18°C° 0 mm 0 m/s 696 mmHg 92%
    08:00 +22°C° 0.1 mm 1 m/s 697 mmHg 83%
    09:00 +24°C° 0.1 mm 1 m/s 697 mmHg 74%
    10:00 +25°C° 0.1 mm 1 m/s 697 mmHg 65%
    11:00 +27°C° 0.1 mm 1 m/s 697 mmHg 59%
    12:00 +28°C° 0.1 mm 1 m/s 697 mmHg 53%
    13:00 +29°C° 0.1 mm 1 m/s 697 mmHg 47%
    14:00 +28°C° 0.1 mm 1 m/s 697 mmHg 49%
    15:00 +28°C° 0.1 mm 1 m/s 697 mmHg 51%
    16:00 +27°C° 0.1 mm 1 m/s 696 mmHg 54%
    17:00 +26°C° 0.1 mm 1 m/s 696 mmHg 64%
    18:00 +24°C° 0.1 mm 1 m/s 696 mmHg 74%
    19:00 +22°C° 0.1 mm 1 m/s 696 mmHg 84%
    20:00 +21°C° 0 mm 1 m/s 696 mmHg 85%
    21:00 +20°C° 0 mm 1 m/s 696 mmHg 85%
    22:00 +17°C° 0 mm 0 m/s 696 mmHg 86%
    23:00 +17°C° 0 mm 0 m/s 696 mmHg 87%

    Amanhã, 23 Julho, Terça-feira

    Tempo Temperatura Precipitação Vento Pressão Humidade
    00:00 +18°C° 0 mm 1 m/s 696 mmHg 88%
    01:00 +18°C° 0 mm 1 m/s 695 mmHg 89%
    02:00 +18°C° 0 mm 1 m/s 695 mmHg 90%
    03:00 +16°C° 0 mm 1 m/s 695 mmHg 91%
    04:00 +16°C° 0 mm 1 m/s 695 mmHg 92%
    05:00 +18°C° 0 mm 1 m/s 695 mmHg 89%
    06:00 +18°C° 0 mm 0 m/s 695 mmHg 86%
    07:00 +19°C° 0 mm 0 m/s 695 mmHg 83%
    08:00 +23°C° 0 mm 1 m/s 695 mmHg 74%
    09:00 +25°C° 0 mm 1 m/s 696 mmHg 64%
    10:00 +28°C° 0 mm 1 m/s 696 mmHg 55%
    11:00 +29°C° 0 mm 1 m/s 696 mmHg 51%
    12:00 +29°C° 0 mm 1 m/s 696 mmHg 48%
    13:00 +30°C° 0 mm 1 m/s 696 mmHg 44%
    14:00 +30°C° 0.2 mm 1 m/s 696 mmHg 46%
    15:00 +30°C° 0.2 mm 1 m/s 695 mmHg 47%
    16:00 +30°C° 0.2 mm 1 m/s 695 mmHg 49%
    17:00 +28°C° 0.1 mm 1 m/s 694 mmHg 59%
    18:00 +26°C° 0.1 mm 1 m/s 694 mmHg 69%
    19:00 +24°C° 0.1 mm 1 m/s 694 mmHg 79%
    20:00 +23°C° 0 mm 1 m/s 694 mmHg 81%
    21:00 +22°C° 0 mm 1 m/s 694 mmHg 83%
    22:00 +21°C° 0 mm 1 m/s 694 mmHg 85%
    23:00 +20°C° 0 mm 1 m/s 694 mmHg 86%

    Depois de amanhã, 24 Julho, Quarta-feira

    Tempo Temperatura Precipitação Vento Pressão Humidade
    00:00 +18°C° 0 mm 0 m/s 693 mmHg 88%
    01:00 +17°C° 0 mm 0 m/s 693 mmHg 89%
    02:00 +17°C° 0 mm 0 m/s 693 mmHg 90%
    03:00 +16°C° 0 mm 0 m/s 693 mmHg 91%
    04:00 +16°C° 0 mm 0 m/s 692 mmHg 92%
    05:00 +17°C° 0 mm 0 m/s 693 mmHg 88%
    06:00 +19°C° 0 mm 0 m/s 693 mmHg 84%
    07:00 +20°C° 0 mm 0 m/s 693 mmHg 80%
    08:00 +22°C° 0 mm 0 m/s 693 mmHg 73%
    09:00 +26°C° 0 mm 1 m/s 694 mmHg 65%
    10:00 +28°C° 0 mm 1 m/s 694 mmHg 58%
    11:00 +29°C° 0 mm 1 m/s 694 mmHg 55%
    12:00 +30°C° 0 mm 1 m/s 694 mmHg 53%
    13:00 +31°C° 0 mm 1 m/s 694 mmHg 50%
    14:00 +30°C° 0.2 mm 1 m/s 693 mmHg 53%
    15:00 +30°C° 0.2 mm 1 m/s 693 mmHg 55%
    16:00 +29°C° 0.2 mm 1 m/s 693 mmHg 58%
    17:00 +28°C° 0.2 mm 1 m/s 693 mmHg 66%
    18:00 +26°C° 0.2 mm 1 m/s 692 mmHg 75%
    19:00 +24°C° 0.2 mm 1 m/s 692 mmHg 83%
    20:00 +23°C° 0.2 mm 1 m/s 692 mmHg 84%
    21:00 +22°C° 0.2 mm 1 m/s 693 mmHg 86%
    22:00 +22°C° 0.2 mm 1 m/s 693 mmHg 87%
    23:00 +19°C° 0 mm 0 m/s 693 mmHg 88%

    25 Julho, Quinta-feira

    Tempo Temperatura Precipitação Vento Pressão Humidade
    00:00 +19°C° 0 mm 0 m/s 692 mmHg 89%
    01:00 +18°C° 0 mm 0 m/s 692 mmHg 90%
    02:00 +18°C° 0 mm 0 m/s 692 mmHg 91%
    03:00 +17°C° 0 mm 0 m/s 692 mmHg 92%
    04:00 +17°C° 0 mm 0 m/s 692 mmHg 92%
    05:00 +18°C° 0 mm 0 m/s 692 mmHg 89%
    06:00 +19°C° 0 mm 0 m/s 693 mmHg 86%
    07:00 +21°C° 0 mm 0 m/s 693 mmHg 84%
    08:00 +23°C° 0 mm 0 m/s 693 mmHg 75%
    09:00 +26°C° 0 mm 1 m/s 694 mmHg 66%
    10:00 +28°C° 0 mm 1 m/s 694 mmHg 58%
    11:00 +29°C° 0 mm 1 m/s 694 mmHg 57%
    12:00 +29°C° 0 mm 1 m/s 694 mmHg 56%
    13:00 +30°C° 0 mm 1 m/s 693 mmHg 54%
    14:00 +30°C° 0.1 mm 1 m/s 693 mmHg 55%
    15:00 +29°C° 0.1 mm 1 m/s 693 mmHg 56%
    16:00 +29°C° 0.1 mm 1 m/s 693 mmHg 57%
    17:00 +28°C° 0.3 mm 1 m/s 693 mmHg 65%
    18:00 +26°C° 0.3 mm 1 m/s 692 mmHg 74%
    19:00 +24°C° 0.3 mm 1 m/s 692 mmHg 82%
    20:00 +23°C° 0.4 mm 1 m/s 692 mmHg 85%
    21:00 +22°C° 0.4 mm 1 m/s 692 mmHg 87%
    22:00 +21°C° 0.4 mm 1 m/s 692 mmHg 90%
    23:00 +21°C° 0.6 mm 1 m/s 692 mmHg 91%

    26 Julho, Sexta-feira

    Tempo Temperatura Precipitação Vento Pressão Humidade
    00:00 +21°C° 0.6 mm 1 m/s 692 mmHg 92%
    01:00 +18°C° 0.6 mm 0 m/s 691 mmHg 92%
    02:00 +18°C° 0.1 mm 0 m/s 691 mmHg 93%
    03:00 +17°C° 0.1 mm 0 m/s 691 mmHg 93%
    04:00 +17°C° 0.1 mm 0 m/s 691 mmHg 93%
    05:00 +18°C° 0.1 mm 0 m/s 691 mmHg 92%
    06:00 +19°C° 0.1 mm 0 m/s 691 mmHg 90%
    07:00 +20°C° 0.1 mm 0 m/s 691 mmHg 89%
    08:00 +22°C° 0 mm 0 m/s 691 mmHg 79%
    09:00 +24°C° 0 mm 0 m/s 692 mmHg 70%
    10:00 +28°C° 0 mm 1 m/s 692 mmHg 61%
    11:00 +28°C° 0.1 mm 1 m/s 692 mmHg 61%
    12:00 +28°C° 0.1 mm 1 m/s 691 mmHg 61%
    13:00 +28°C° 0.1 mm 1 m/s 691 mmHg 61%
    14:00 +28°C° 0.3 mm 1 m/s 691 mmHg 63%
    15:00 +27°C° 0.3 mm 1 m/s 690 mmHg 66%
    16:00 +27°C° 0.3 mm 1 m/s 690 mmHg 69%
    17:00 +26°C° 0.3 mm 1 m/s 690 mmHg 75%
    18:00 +25°C° 0.3 mm 1 m/s 689 mmHg 81%
    19:00 +21°C° 0.3 mm 0 m/s 689 mmHg 87%
    20:00 +21°C° 0.9 mm 0 m/s 689 mmHg 89%
    21:00 +22°C° 0.9 mm 1 m/s 689 mmHg 90%
    22:00 +21°C° 0.9 mm 1 m/s 689 mmHg 92%
    23:00 +21°C° 1.8 mm 1 m/s 689 mmHg 93%

    27 Julho, Sábado

    Tempo Temperatura Precipitação Vento Pressão Humidade
    00:00 +20°C° 1.8 mm 1 m/s 689 mmHg 95%
    01:00 +18°C° 1.8 mm 0 m/s 689 mmHg 96%
    02:00 +18°C° 0.1 mm 0 m/s 689 mmHg 97%
    03:00 +20°C° 0.1 mm 1 m/s 689 mmHg 97%
    04:00 +19°C° 0.1 mm 1 m/s 688 mmHg 97%
    05:00 +18°C° 0.9 mm 0 m/s 689 mmHg 97%
    06:00 +18°C° 0.9 mm 0 m/s 689 mmHg 97%
    07:00 +19°C° 0.9 mm 0 m/s 689 mmHg 96%
    08:00 +22°C° 0.1 mm 1 m/s 689 mmHg 90%
    09:00 +23°C° 0.1 mm 1 m/s 689 mmHg 83%
    10:00 +24°C° 0.1 mm 1 m/s 690 mmHg 77%
    11:00 +25°C° 0.2 mm 1 m/s 690 mmHg 71%
    12:00 +26°C° 0.2 mm 1 m/s 690 mmHg 66%
    13:00 +27°C° 0.2 mm 1 m/s 690 mmHg 60%
    14:00 +26°C° 0.9 mm 1 m/s 689 mmHg 66%
    15:00 +25°C° 0.9 mm 1 m/s 689 mmHg 72%
    16:00 +24°C° 0.9 mm 1 m/s 689 mmHg 78%
    17:00 +23°C° 5.3 mm 1 m/s 689 mmHg 85%
    18:00 +21°C° 5.3 mm 1 m/s 688 mmHg 91%
    19:00 +19°C° 5.3 mm 1 m/s 688 mmHg 97%
    20:00 +19°C° 1.5 mm 1 m/s 688 mmHg 96%
    21:00 +17°C° 1.5 mm 0 m/s 688 mmHg 96%
    22:00 +16°C° 1.5 mm 0 m/s 689 mmHg 95%
    23:00 +16°C° 0.6 mm 0 m/s 689 mmHg 95%
    Mostrar mais